Regional Weather Roundup
Issued by NWS

Home | Current Version | Previous Version | Text Only | Print | Product List | Glossary Off
Versions: 1 2 3 4 5 6 7 8 9 10 11 12 13 14 15 16 17 18 19 20 21 22 23 24 25 26 27 28 29 30 31 32 33 34 35 36 37 38 39 40 41 42 43 44 45 46 47 48 49 50

000
ASUS43 KDTX 042210
RWRMI
MICHIGAN HOURLY REGIONAL WEATHER ROUNDUP
NATIONAL WEATHER SERVICE DETROIT/PONTIAC MI
600 PM EDT MON MAY 04 2015

NOTE: "FAIR" INDICATES FEW OR NO CLOUDS BELOW 12,000 FEET WITH NO
SIGNIFICANT WEATHER AND/OR OBSTRUCTION TO VISIBILITY.

MIZ047>049-052>055-059>063-066>070-074>076-081>083-042300-
SOUTHEAST LOWER MICHIGAN

CITY           SKY/WX    TMP DP  RH WIND       PRES   REMARKS
ADRIAN         PTSUNNY   74  59  59 W12       30.12R
ALMA           MOSUNNY   74  51  45 W6        30.10S
ANN ARBOR      PTSUNNY   74  59  59 W10       30.10R
BAD AXE        MOSUNNY   70  54  56 W3        30.10R
CARO           MOSUNNY   73  57  56 CALM      30.10R
DETROIT CITY   PTSUNNY   72  59  63 SW12      30.08S
DETROIT        PTSUNNY   76  59  55 SW13      30.09F
FLINT          PTSUNNY   76  57  51 W13       30.10R
GROSSE ILE     CLOUDY    73  61  64 SW10      30.09S
HILLSDALE      PTSUNNY   74  56  53 W10G17    30.12S
HOWELL         MOSUNNY   75  53  46 W10G17    30.11R

CITY           SKY/WX    TMP DP  RH WIND       PRES   REMARKS
JACKSON        PTSUNNY   75  55  49 W12       30.11R
LAMBERTVILLE   PTSUNNY   73  59  60 SW9       30.13S
LANSING        MOSUNNY   74  53  48 W10       30.12R
LAPEER         FAIR      73  54  51 NW5       30.10R
MASON          MOSUNNY   74  55  51 NW12      30.11R
MONROE         PTSUNNY   73  61  64 SW15      30.10R
MT. CLEMENS    PTSUNNY   76  56  49 NW8       30.06R
PONTIAC        PTSUNNY   74  54  49 W16       30.10R
PORT HOPE        N/A     62  54  74 N7        30.09R
PORT HURON     PTSUNNY   73  57  56 NW9       30.09R
TRI CITIES     MOSUNNY   75  53  46 W8        30.09R
MIDLAND        FAIR      76  42  29 NW10G16   30.09R
TROY           PTSUNNY   78  54  43 NW10      30.10R
SAGINAW HB     MOSUNNY   73  52  46 W10       30.09R
$$
MIZ043>046-050>051-056>058-064>065-071>073-077>080-042300-
SOUTHWEST LOWER MICHIGAN

CITY           SKY/WX    TMP DP  RH WIND       PRES   REMARKS
BATTLE CREEK   PTSUNNY   73  55  53 NW14      30.13R
BENTON HARBOR  PTSUNNY   63  54  72 VRB3      30.14F
BIG RAPIDS     MOSUNNY   73  36  26 N12G18    30.11R
COLDWATER      PTSUNNY   72  54  54 W10       30.13R
FREMONT        FAIR      74  42  31 N7        30.10S
HOLLAND        MOSUNNY   63  53  70 NW6       30.15S
GRAND RAPIDS   PTSUNNY   73  54  51 W15       30.12R
IONIA          FAIR      74  55  51 W9        30.10S
KALAMAZOO      PTSUNNY   71  56  58 NW12      30.14R
LUDINGTON      MOSUNNY   71  32  23 N13G18    30.16R
MARSHALL       MOSUNNY   74  56  53 W8G20     30.11S
MOUNT PLEASANT MOSUNNY   75  42  30 N9        30.10R
MUSKEGON       PTSUNNY   60  41  49 W7        30.13S
SOUTH HAVEN    PTSUNNY   61  53  75 NW5       30.15F
$$
MIZ016>042-042300-
NORTHERN LOWER MICHIGAN

CITY           SKY/WX    TMP DP  RH WIND       PRES   REMARKS
ALPENA         SUNNY     67  37  33 N17G29    30.10R
BEAVER ISLAND  SUNNY     58  34  40 NW7       30.19R
BELLAIRE       SUNNY     63  38  39 NW8       30.18R
CADILLAC       SUNNY     64  37  37 N10G16    30.16R
CHARLEVOIX     SUNNY     56  38  52 NW10      30.21R
FRANKFORT      SUNNY     65  33  30 N7        30.18S
GAYLORD        SUNNY     61  35  37 VRB7G17   30.15R
GRAYLING       SUNNY     66  38  35 NW14G23   30.16R
HARBOR SPRINGS SUNNY     47  37  66 SW6       30.16R
HOUGHTON LAKE  MOSUNNY   68  37  32 NW13G22   30.14R
MANISTEE       MOSUNNY   66  30  26 N12G18    30.18R
OSCODA         MOSUNNY   64  50  60 E8        30.10R
PELLSTON       SUNNY     64  35  34 NW16      30.17R
ROGERS CITY    SUNNY     63  36  36 NW14G21   30.13R
TRAVERSE CITY  PTSUNNY   64  35  34 N12       30.18R
$$
MIZ007>008-015-042300-
EASTERN UPPER MICHIGAN

CITY           SKY/WX    TMP DP  RH WIND       PRES   REMARKS
KINROSS        MOSUNNY   54  41  62 N17       30.15R
MACKINAC ISLAN SUNNY     62  31  30 NW12G18   30.14R
NEWBERRY       SUNNY     57  35  42 NW13G20   30.17R
S. S. MARIE    MOSUNNY   52  38  58 NW17G23   30.15R
MUNISING         N/A     47  37  68 N9        30.21R
$$
MIZ004>006-011>014-085-042300-
CENTRAL UPPER MICHIGAN

CITY           SKY/WX    TMP DP  RH WIND       PRES   REMARKS
MANISTIQUE     MOSUNNY   60  30  32 NW15G24   30.18S
ESCANABA       SUNNY     63  36  36 NE14G20   30.17R
MENOMINEE      SUNNY     63  37  39 E13       30.17R
SAWYER-GWINN   SUNNY     55  36  47 NE13      30.20R
$$
MIZ001>003-009>011-084-042300-
WESTERN UPPER MICHIGAN

CITY           SKY/WX    TMP DP  RH WIND       PRES   REMARKS
IRON MOUNTAIN  SUNNY     67  25  20 CALM      30.15R
HOUGHTON       SUNNY     61  33  35 VRB6      30.18S
COPPER HARBOR    N/A     49  39  68 N5        30.18R
IRONWOOD       PTSUNNY   59  25  27 NW6       30.18S
$$

ABBREVIATIONS USED IN REMARKS
   TC - TEMPERATURE IN CELSIUS
  WCI - WIND CHILL INDEX
   HX - HEAT INDEX
  VSB - VISIBILITY



USA.gov is the U.S. government's official web portal to all federal, state and local government web resources and services.